Data supplied by UK-AIR on 21/1/2015
All Data GMT hour ending 
Status: R =Ratified P=Provisional,P*=As supplied
,,Cwmbran,,,,,,,,,,,,,,,,,,,,,,,
Date,time,"Nitric oxide",status,unit,"Nitrogen dioxide",status,unit,"Nitrogen oxides as nitrogen dioxide",status,unit,"Ozone",status,unit
 
01-01-2013,01:00,0.37419,R,ugm-3,2.49677,R,ugm-3,3.07016,R,ugm-3,58.34096,R,ugm-3
01-01-2013,02:00,0.28064,R,ugm-3,3.59024,R,ugm-3,4.02067,R,ugm-3,51.35601,R,ugm-3
01-01-2013,03:00,0.21828,R,ugm-3,2.02247,R,ugm-3,2.35727,R,ugm-3,55.97939,R,ugm-3
01-01-2013,04:00,0.28064,R,ugm-3,1.26177,R,ugm-3,1.69191,R,ugm-3,60.22025,R,ugm-3
01-01-2013,05:00,0.18710,R,ugm-3,1.11977,R,ugm-3,1.40676,R,ugm-3,64.96004,R,ugm-3
01-01-2013,06:00,0.21828,R,ugm-3,1.30958,R,ugm-3,1.64439,R,ugm-3,64.61079,R,ugm-3
01-01-2013,07:00,0.31183,R,ugm-3,1.26129,R,ugm-3,1.73944,R,ugm-3,63.96219,R,ugm-3
01-01-2013,08:00,0.28064,R,ugm-3,1.78436,R,ugm-3,2.21469,R,ugm-3,65.35918,R,ugm-3
01-01-2013,09:00,0.28064,R,ugm-3,2.16399,R,ugm-3,2.59490,R,ugm-3,63.31358,R,ugm-3
01-01-2013,10:00,0.28064,R,ugm-3,1.49940,R,ugm-3,1.92954,R,ugm-3,65.40907,R,ugm-3
01-01-2013,11:00,0.43656,R,ugm-3,1.68826,R,ugm-3,2.35727,R,ugm-3,62.36563,R,ugm-3
01-01-2013,12:00,0.31183,R,ugm-3,2.21228,R,ugm-3,2.68995,R,ugm-3,59.47186,R,ugm-3
01-01-2013,13:00,0.40537,R,ugm-3,2.44896,R,ugm-3,3.07016,R,ugm-3,58.82326,R,ugm-3
01-01-2013,14:00,0.49892,R,ugm-3,3.01840,R,ugm-3,3.78304,R,ugm-3,56.67788,R,ugm-3
01-01-2013,15:00,0.34301,R,ugm-3,2.40162,R,ugm-3,2.92758,R,ugm-3,56.72777,R,ugm-3
01-01-2013,16:00,0.24946,R,ugm-3,3.68539,R,ugm-3,4.06819,R,ugm-3,53.08562,R,ugm-3
01-01-2013,17:00,0.31183,R,ugm-3,4.92038,R,ugm-3,5.39891,R,ugm-3,52.08777,R,ugm-3
01-01-2013,18:00,0.37419,R,ugm-3,4.53980,R,ugm-3,5.11376,R,ugm-3,51.43917,R,ugm-3
01-01-2013,19:00,0.46774,R,ugm-3,5.25220,R,ugm-3,5.96922,R,ugm-3,47.34798,R,ugm-3
01-01-2013,20:00,0.40537,R,ugm-3,3.92158,R,ugm-3,4.54345,R,ugm-3,51.63874,R,ugm-3
01-01-2013,21:00,0.18710,R,ugm-3,4.01912,R,ugm-3,4.30582,R,ugm-3,51.13981,R,ugm-3
01-01-2013,22:00,0.40537,R,ugm-3,3.63614,R,ugm-3,4.25830,R,ugm-3,50.04218,R,ugm-3
01-01-2013,23:00,0.59247,R,ugm-3,4.77551,R,ugm-3,5.68407,R,ugm-3,47.59745,R,ugm-3
01-01-2013,24:00,0.24946,R,ugm-3,2.21228,R,ugm-3,2.59490,R,ugm-3,49.29379,R,ugm-3
02-01-2013,01:00,0.37419,R,ugm-3,1.77432,R,ugm-3,2.34777,R,ugm-3,45.30239,R,ugm-3
02-01-2013,02:00,0.31183,R,ugm-3,1.77432,R,ugm-3,2.25272,R,ugm-3,47.49766,R,ugm-3
02-01-2013,03:00,0.37419,R,ugm-3,2.72436,R,ugm-3,3.29828,R,ugm-3,48.14626,R,ugm-3
02-01-2013,04:00,0.31183,R,ugm-3,2.63017,R,ugm-3,3.10818,R,ugm-3,44.75357,R,ugm-3
02-01-2013,05:00,0.31183,R,ugm-3,6.19459,R,ugm-3,6.67260,R,ugm-3,34.67529,R,ugm-3
02-01-2013,06:00,0.43656,R,ugm-3,7.23881,R,ugm-3,7.90826,R,ugm-3,36.82067,R,ugm-3
02-01-2013,07:00,0.62365,R,ugm-3,17.50272,R,ugm-3,18.45895,R,ugm-3,31.88131,R,ugm-3
02-01-2013,08:00,2.61933,R,ugm-3,39.82160,R,ugm-3,43.83764,R,ugm-3,15.46668,R,ugm-3
02-01-2013,09:00,13.96976,R,ugm-3,52.50147,R,ugm-3,73.92136,R,ugm-3,2.84387,R,ugm-3
02-01-2013,10:00,1.68386,R,ugm-3,32.65355,R,ugm-3,35.23550,R,ugm-3,24.39743,R,ugm-3
02-01-2013,11:00,5.33221,R,ugm-3,43.64612,R,ugm-3,51.82194,R,ugm-3,24.14797,R,ugm-3
02-01-2013,12:00,1.71504,R,ugm-3,29.89716,R,ugm-3,32.52654,R,ugm-3,31.23271,R,ugm-3
02-01-2013,13:00,0.99784,R,ugm-3,13.36407,R,ugm-3,14.89453,R,ugm-3,45.50196,R,ugm-3
02-01-2013,14:00,1.12257,R,ugm-3,10.95544,R,ugm-3,12.67667,R,ugm-3,47.49766,R,ugm-3
02-01-2013,15:00,1.02902,R,ugm-3,11.27323,R,ugm-3,12.85093,R,ugm-3,46.40003,R,ugm-3
02-01-2013,16:00,0.87311,R,ugm-3,12.46233,R,ugm-3,13.80144,R,ugm-3,44.50411,R,ugm-3
02-01-2013,17:00,0.81075,R,ugm-3,14.64975,R,ugm-3,15.89257,R,ugm-3,40.41293,R,ugm-3
02-01-2013,18:00,0.99784,R,ugm-3,21.01646,R,ugm-3,22.54616,R,ugm-3,34.27615,R,ugm-3
02-01-2013,19:00,0.59247,R,ugm-3,13.93878,R,ugm-3,14.84701,R,ugm-3,44.30454,R,ugm-3
02-01-2013,20:00,0.37419,R,ugm-3,8.61773,R,ugm-3,9.19146,R,ugm-3,45.65164,R,ugm-3
02-01-2013,21:00,0.37419,R,ugm-3,6.47907,R,ugm-3,7.05280,R,ugm-3,47.79702,R,ugm-3
02-01-2013,22:00,0.40537,R,ugm-3,4.81472,R,ugm-3,5.43693,R,ugm-3,51.98799,R,ugm-3
02-01-2013,23:00,0.37419,R,ugm-3,3.57972,R,ugm-3,4.15374,R,ugm-3,49.49336,R,ugm-3
02-01-2013,24:00,0.43656,R,ugm-3,5.38608,R,ugm-3,6.05477,R,ugm-3,46.30024,R,ugm-3
03-01-2013,01:00,0.53010,R,ugm-3,3.66578,R,ugm-3,4.47882,R,ugm-3,46.76590,R,ugm-3
03-01-2013,02:00,0.43656,R,ugm-3,2.47908,R,ugm-3,3.14810,R,ugm-3,44.50411,R,ugm-3
03-01-2013,03:00,0.34301,R,ugm-3,1.57686,R,ugm-3,2.10253,R,ugm-3,48.44562,R,ugm-3
03-01-2013,04:00,0.21828,R,ugm-3,1.72077,R,ugm-3,2.05501,R,ugm-3,51.48906,R,ugm-3
03-01-2013,05:00,0.31183,R,ugm-3,2.76500,R,ugm-3,3.24315,R,ugm-3,50.99014,R,ugm-3
03-01-2013,06:00,0.53010,R,ugm-3,3.95123,R,ugm-3,4.76397,R,ugm-3,49.84261,R,ugm-3
03-01-2013,07:00,0.40537,R,ugm-3,7.42146,R,ugm-3,8.04324,R,ugm-3,47.89680,R,ugm-3
03-01-2013,08:00,0.93548,R,ugm-3,18.25290,R,ugm-3,19.68702,R,ugm-3,41.51056,R,ugm-3
03-01-2013,09:00,1.27848,R,ugm-3,22.85963,R,ugm-3,24.81978,R,ugm-3,30.78367,R,ugm-3
03-01-2013,10:00,0.74838,R,ugm-3,9.36743,R,ugm-3,10.51457,R,ugm-3,44.60390,R,ugm-3
03-01-2013,11:00,0.65483,R,ugm-3,6.94429,R,ugm-3,7.94819,R,ugm-3,48.19616,R,ugm-3
03-01-2013,12:00,0.87311,R,ugm-3,8.93855,R,ugm-3,10.27694,R,ugm-3,45.75142,R,ugm-3
03-01-2013,13:00,0.46774,R,ugm-3,5.51995,R,ugm-3,6.23726,R,ugm-3,49.74282,R,ugm-3
03-01-2013,14:00,0.74838,R,ugm-3,6.75304,R,ugm-3,7.90066,R,ugm-3,46.44992,R,ugm-3
03-01-2013,15:00,0.49892,R,ugm-3,5.42481,R,ugm-3,6.18974,R,ugm-3,48.44562,R,ugm-3
03-01-2013,16:00,0.37419,R,ugm-3,5.33062,R,ugm-3,5.90458,R,ugm-3,48.64519,R,ugm-3
03-01-2013,17:00,0.37419,R,ugm-3,6.70905,R,ugm-3,7.28283,R,ugm-3,52.43702,R,ugm-3
03-01-2013,18:00,0.37419,R,ugm-3,8.56226,R,ugm-3,9.13633,R,ugm-3,47.44777,R,ugm-3
03-01-2013,19:00,0.34301,R,ugm-3,6.23427,R,ugm-3,6.76005,R,ugm-3,47.44777,R,ugm-3
03-01-2013,20:00,0.40537,R,ugm-3,7.13697,R,ugm-3,7.75808,R,ugm-3,47.34798,R,ugm-3
03-01-2013,21:00,0.43656,R,ugm-3,4.18981,R,ugm-3,4.85902,R,ugm-3,50.39143,R,ugm-3
03-01-2013,22:00,0.34301,R,ugm-3,2.85967,R,ugm-3,3.38573,R,ugm-3,56.87745,R,ugm-3
03-01-2013,23:00,0.31183,R,ugm-3,1.48171,R,ugm-3,1.95996,R,ugm-3,60.41982,R,ugm-3
03-01-2013,24:00,0.24946,R,ugm-3,1.05474,R,ugm-3,1.43718,R,ugm-3,61.26799,R,ugm-3
04-01-2013,01:00,0.37419,R,ugm-3,0.90174,R,ugm-3,1.47520,R,ugm-3,61.13494,R,ugm-3
04-01-2013,02:00,0.28064,R,ugm-3,0.66459,R,ugm-3,1.09499,R,ugm-3,63.86240,R,ugm-3
04-01-2013,03:00,0.40537,R,ugm-3,0.18886,R,ugm-3,0.80984,R,ugm-3,65.55875,R,ugm-3
04-01-2013,04:00,0.37419,R,ugm-3,0.28353,R,ugm-3,0.85736,R,ugm-3,63.46326,R,ugm-3
04-01-2013,05:00,0.28064,R,ugm-3,0.90270,R,ugm-3,1.33262,R,ugm-3,62.06627,R,ugm-3
04-01-2013,06:00,0.21828,R,ugm-3,1.04566,R,ugm-3,1.38014,R,ugm-3,60.56950,R,ugm-3
04-01-2013,07:00,0.34301,R,ugm-3,7.79296,R,ugm-3,8.31889,R,ugm-3,53.38498,R,ugm-3
04-01-2013,08:00,0.46774,R,ugm-3,13.25745,R,ugm-3,13.97444,R,ugm-3,49.59315,R,ugm-3
04-01-2013,09:00,0.40537,R,ugm-3,8.36288,R,ugm-3,8.98424,R,ugm-3,48.49551,R,ugm-3
04-01-2013,10:00,0.43656,R,ugm-3,5.46306,R,ugm-3,6.13271,R,ugm-3,55.63014,R,ugm-3
04-01-2013,11:00,1.02902,R,ugm-3,9.83025,R,ugm-3,11.40805,R,ugm-3,50.99014,R,ugm-3
04-01-2013,12:00,1.55913,R,ugm-3,7.82930,R,ugm-3,10.21991,R,ugm-3,50.49121,R,ugm-3
04-01-2013,13:00,0.71720,R,ugm-3,6.60195,R,ugm-3,7.70105,R,ugm-3,50.24175,R,ugm-3
04-01-2013,14:00,0.74838,R,ugm-3,7.12406,R,ugm-3,8.27136,R,ugm-3,49.64304,R,ugm-3
04-01-2013,15:00,0.81075,R,ugm-3,7.83647,R,ugm-3,9.07930,R,ugm-3,49.94239,R,ugm-3
04-01-2013,16:00,0.49892,R,ugm-3,5.74802,R,ugm-3,6.51291,R,ugm-3,53.48476,R,ugm-3
04-01-2013,17:00,0.53010,R,ugm-3,7.79105,R,ugm-3,8.60404,R,ugm-3,52.68648,R,ugm-3
04-01-2013,18:00,0.40537,R,ugm-3,8.31507,R,ugm-3,8.93672,R,ugm-3,52.18756,R,ugm-3
04-01-2013,19:00,0.46774,R,ugm-3,7.88715,R,ugm-3,8.60404,R,ugm-3,49.84261,R,ugm-3
04-01-2013,20:00,0.37419,R,ugm-3,3.70595,R,ugm-3,4.27921,R,ugm-3,56.52820,R,ugm-3
04-01-2013,21:00,0.34301,R,ugm-3,3.13602,R,ugm-3,3.66137,R,ugm-3,56.37853,R,ugm-3
04-01-2013,22:00,0.40537,R,ugm-3,4.22806,R,ugm-3,4.84952,R,ugm-3,49.94239,R,ugm-3
04-01-2013,23:00,0.28064,R,ugm-3,2.94621,R,ugm-3,3.37622,R,ugm-3,53.78412,R,ugm-3
04-01-2013,24:00,0.40537,R,ugm-3,2.84963,R,ugm-3,3.47127,R,ugm-3,53.68433,R,ugm-3
05-01-2013,01:00,0.34301,R,ugm-3,2.27253,R,ugm-3,2.79831,R,ugm-3,53.48476,R,ugm-3
05-01-2013,02:00,0.37419,R,ugm-3,5.31388,R,ugm-3,5.88747,R,ugm-3,44.43759,R,ugm-3
05-01-2013,03:00,0.43656,R,ugm-3,2.41405,R,ugm-3,3.08346,R,ugm-3,48.84476,R,ugm-3
05-01-2013,04:00,0.40537,R,ugm-3,0.98876,R,ugm-3,1.61017,R,ugm-3,53.83401,R,ugm-3
05-01-2013,05:00,0.34301,R,ugm-3,2.32034,R,ugm-3,2.84583,R,ugm-3,54.58240,R,ugm-3
05-01-2013,06:00,0.53010,R,ugm-3,4.21945,R,ugm-3,5.03201,R,ugm-3,47.49766,R,ugm-3
05-01-2013,07:00,0.46774,R,ugm-3,3.36409,R,ugm-3,4.08150,R,ugm-3,53.03573,R,ugm-3
05-01-2013,08:00,0.49892,R,ugm-3,5.26511,R,ugm-3,6.03005,R,ugm-3,49.24390,R,ugm-3
05-01-2013,09:00,0.40537,R,ugm-3,5.12359,R,ugm-3,5.74490,R,ugm-3,51.08992,R,ugm-3
05-01-2013,10:00,0.65483,R,ugm-3,9.25602,R,ugm-3,10.25983,R,ugm-3,42.80777,R,ugm-3
05-01-2013,11:00,0.56129,R,ugm-3,7.87854,R,ugm-3,8.73901,R,ugm-3,44.70368,R,ugm-3
05-01-2013,12:00,0.68602,R,ugm-3,10.15920,R,ugm-3,11.21034,R,ugm-3,44.40433,R,ugm-3
05-01-2013,13:00,1.27848,R,ugm-3,16.47428,R,ugm-3,18.43424,R,ugm-3,34.97464,R,ugm-3
05-01-2013,14:00,0.74838,R,ugm-3,8.32001,R,ugm-3,9.46774,R,ugm-3,40.46282,R,ugm-3
05-01-2013,15:00,0.59247,R,ugm-3,6.73774,R,ugm-3,7.64592,R,ugm-3,49.09422,R,ugm-3
05-01-2013,16:00,0.49892,R,ugm-3,5.16997,R,ugm-3,5.93500,R,ugm-3,48.59530,R,ugm-3
05-01-2013,17:00,0.46774,R,ugm-3,9.11498,R,ugm-3,9.83210,R,ugm-3,42.70798,R,ugm-3
05-01-2013,18:00,0.31183,R,ugm-3,6.74013,R,ugm-3,7.21819,R,ugm-3,48.29594,R,ugm-3
05-01-2013,19:00,0.68602,R,ugm-3,16.24238,R,ugm-3,17.29362,R,ugm-3,42.45852,R,ugm-3
05-01-2013,20:00,0.43656,R,ugm-3,12.29929,R,ugm-3,12.96879,R,ugm-3,39.86411,R,ugm-3
05-01-2013,21:00,0.37419,R,ugm-3,5.12359,R,ugm-3,5.69737,R,ugm-3,48.34583,R,ugm-3
05-01-2013,22:00,0.68602,R,ugm-3,24.74871,R,ugm-3,25.80071,R,ugm-3,25.69464,R,ugm-3
05-01-2013,23:00,0.56129,R,ugm-3,13.05855,R,ugm-3,13.91931,R,ugm-3,32.92905,R,ugm-3
05-01-2013,24:00,0.53010,R,ugm-3,14.57994,R,ugm-3,15.39260,R,ugm-3,33.87701,R,ugm-3
06-01-2013,01:00,0.59247,R,ugm-3,12.81327,R,ugm-3,13.72160,R,ugm-3,25.41191,R,ugm-3
06-01-2013,02:00,0.43656,R,ugm-3,11.00883,R,ugm-3,11.67800,R,ugm-3,32.72948,R,ugm-3
06-01-2013,03:00,0.71720,R,ugm-3,17.99232,R,ugm-3,19.09199,R,ugm-3,21.45378,R,ugm-3
06-01-2013,04:00,0.40537,R,ugm-3,12.24430,R,ugm-3,12.86614,R,ugm-3,22.60130,R,ugm-3
06-01-2013,05:00,0.56129,R,ugm-3,14.85678,R,ugm-3,15.71768,R,ugm-3,20.50582,R,ugm-3
06-01-2013,06:00,0.53010,R,ugm-3,15.04755,R,ugm-3,15.86025,R,ugm-3,19.60775,R,ugm-3
06-01-2013,07:00,0.62365,R,ugm-3,14.57086,R,ugm-3,15.52757,R,ugm-3,18.26066,R,ugm-3
06-01-2013,08:00,0.87311,R,ugm-3,18.98873,R,ugm-3,20.32766,R,ugm-3,12.92216,R,ugm-3
06-01-2013,09:00,0.68602,R,ugm-3,11.67151,R,ugm-3,12.72356,R,ugm-3,23.00044,R,ugm-3
06-01-2013,10:00,0.99784,R,ugm-3,14.09226,R,ugm-3,15.62262,R,ugm-3,26.49292,R,ugm-3
06-01-2013,11:00,1.59031,R,ugm-3,15.32295,R,ugm-3,17.76128,R,ugm-3,24.29765,R,ugm-3
06-01-2013,12:00,1.43440,R,ugm-3,11.33156,R,ugm-3,13.53150,R,ugm-3,28.58840,R,ugm-3
06-01-2013,13:00,1.90213,R,ugm-3,15.55723,R,ugm-3,18.47416,R,ugm-3,27.88991,R,ugm-3
06-01-2013,14:00,0.99784,R,ugm-3,12.61915,R,ugm-3,14.14933,R,ugm-3,29.48647,R,ugm-3
06-01-2013,15:00,0.71720,R,ugm-3,11.24359,R,ugm-3,12.34336,R,ugm-3,30.83357,R,ugm-3
06-01-2013,16:00,0.62365,R,ugm-3,13.62035,R,ugm-3,14.57706,R,ugm-3,26.89206,R,ugm-3
06-01-2013,17:00,0.65483,R,ugm-3,17.37411,R,ugm-3,18.37911,R,ugm-3,22.80087,R,ugm-3
06-01-2013,18:00,0.59247,R,ugm-3,15.56918,R,ugm-3,16.47809,R,ugm-3,24.84647,R,ugm-3
06-01-2013,19:00,0.65483,R,ugm-3,14.04779,R,ugm-3,15.05232,R,ugm-3,22.20216,R,ugm-3
06-01-2013,20:00,0.59247,R,ugm-3,14.57134,R,ugm-3,15.48005,R,ugm-3,22.00259,R,ugm-3
06-01-2013,21:00,0.56129,R,ugm-3,12.76594,R,ugm-3,13.62655,R,ugm-3,24.29765,R,ugm-3
06-01-2013,22:00,0.49892,R,ugm-3,9.20247,R,ugm-3,9.96707,R,ugm-3,25.59485,R,ugm-3
06-01-2013,23:00,0.56129,R,ugm-3,7.96556,R,ugm-3,8.82646,R,ugm-3,28.23916,R,ugm-3
06-01-2013,24:00,0.43656,R,ugm-3,6.39827,R,ugm-3,7.06801,R,ugm-3,31.58195,R,ugm-3
07-01-2013,01:00,0.40537,R,ugm-3,4.25053,R,ugm-3,4.87233,R,ugm-3,31.86468,R,ugm-3
07-01-2013,02:00,0.43656,R,ugm-3,4.29787,R,ugm-3,4.96738,R,ugm-3,31.59858,R,ugm-3
07-01-2013,03:00,0.37419,R,ugm-3,3.06287,R,ugm-3,3.63666,R,ugm-3,33.77722,R,ugm-3
07-01-2013,04:00,0.46774,R,ugm-3,3.77480,R,ugm-3,4.49212,R,ugm-3,32.23056,R,ugm-3
07-01-2013,05:00,0.37419,R,ugm-3,3.68013,R,ugm-3,4.25449,R,ugm-3,28.43873,R,ugm-3
07-01-2013,06:00,0.31183,R,ugm-3,5.20200,R,ugm-3,5.68026,R,ugm-3,29.13722,R,ugm-3
07-01-2013,07:00,0.40537,R,ugm-3,8.19554,R,ugm-3,8.81695,R,ugm-3,26.69249,R,ugm-3
07-01-2013,08:00,0.68602,R,ugm-3,15.08437,R,ugm-3,16.13590,R,ugm-3,22.15227,R,ugm-3
07-01-2013,09:00,0.99784,R,ugm-3,19.40614,R,ugm-3,20.93599,R,ugm-3,18.95915,R,ugm-3
07-01-2013,10:00,1.09139,R,ugm-3,15.79295,R,ugm-3,17.46662,R,ugm-3,20.20646,R,ugm-3
07-01-2013,11:00,1.83977,R,ugm-3,16.97487,R,ugm-3,19.79537,R,ugm-3,23.54926,R,ugm-3
07-01-2013,12:00,2.46342,R,ugm-3,19.82019,R,ugm-3,23.59742,R,ugm-3,33.42798,R,ugm-3
07-01-2013,13:00,3.99136,R,ugm-3,23.22827,R,ugm-3,29.34802,R,ugm-3,21.40388,R,ugm-3
07-01-2013,14:00,3.08707,R,ugm-3,27.46589,R,ugm-3,32.19956,R,ugm-3,17.16302,R,ugm-3
07-01-2013,15:00,1.49676,R,ugm-3,22.44271,R,ugm-3,24.73804,R,ugm-3,21.45378,R,ugm-3
07-01-2013,16:00,0.93548,R,ugm-3,20.16636,R,ugm-3,21.60135,R,ugm-3,26.54281,R,ugm-3
07-01-2013,17:00,10.69560,R,ugm-3,45.07571,R,ugm-3,61.47535,R,ugm-3,6.08689,R,ugm-3
07-01-2013,18:00,13.68912,R,ugm-3,53.79241,R,ugm-3,74.78252,R,ugm-3,1.24731,R,ugm-3
07-01-2013,19:00,2.02686,R,ugm-3,44.10990,R,ugm-3,47.21766,R,ugm-3,7.53377,R,ugm-3
07-01-2013,20:00,5.76876,R,ugm-3,53.34297,R,ugm-3,62.18823,R,ugm-3,3.39269,R,ugm-3
07-01-2013,21:00,1.80859,R,ugm-3,41.26028,R,ugm-3,44.03344,R,ugm-3,8.18237,R,ugm-3
07-01-2013,22:00,0.84193,R,ugm-3,26.91653,R,ugm-3,28.20741,R,ugm-3,19.15872,R,ugm-3
07-01-2013,23:00,0.65483,R,ugm-3,20.35952,R,ugm-3,21.36372,R,ugm-3,25.04604,R,ugm-3
07-01-2013,24:00,0.59247,R,ugm-3,11.61557,R,ugm-3,12.52395,R,ugm-3,33.47787,R,ugm-3
08-01-2013,01:00,0.46774,R,ugm-3,5.81065,R,ugm-3,6.52812,R,ugm-3,42.17579,R,ugm-3
08-01-2013,02:00,0.46774,R,ugm-3,5.90580,R,ugm-3,6.62317,R,ugm-3,41.24447,R,ugm-3
08-01-2013,03:00,0.59247,R,ugm-3,14.41164,R,ugm-3,15.32036,R,ugm-3,34.07658,R,ugm-3
08-01-2013,04:00,0.65483,R,ugm-3,14.88642,R,ugm-3,15.89067,R,ugm-3,26.14367,R,ugm-3
08-01-2013,05:00,0.43656,R,ugm-3,10.70618,R,ugm-3,11.37573,R,ugm-3,35.07443,R,ugm-3
08-01-2013,06:00,0.59247,R,ugm-3,10.89551,R,ugm-3,11.80346,R,ugm-3,39.31529,R,ugm-3
08-01-2013,07:00,0.53010,R,ugm-3,10.42026,R,ugm-3,11.23316,R,ugm-3,38.81637,R,ugm-3
08-01-2013,08:00,0.43656,R,ugm-3,17.02747,R,ugm-3,17.69664,R,ugm-3,35.17421,R,ugm-3
08-01-2013,09:00,0.71720,R,ugm-3,22.25242,R,ugm-3,23.35219,R,ugm-3,30.28475,R,ugm-3
08-01-2013,10:00,1.02902,R,ugm-3,26.76448,R,ugm-3,28.34238,R,ugm-3,25.79442,R,ugm-3
08-01-2013,11:00,1.27848,R,ugm-3,24.62344,R,ugm-3,26.58393,R,ugm-3,24.84647,R,ugm-3
08-01-2013,12:00,1.18494,R,ugm-3,18.11329,R,ugm-3,19.93035,R,ugm-3,33.27830,R,ugm-3
08-01-2013,13:00,1.55913,R,ugm-3,24.09798,R,ugm-3,26.48888,R,ugm-3,29.83572,R,ugm-3
08-01-2013,14:00,1.33045,R,ugm-3,26.90378,R,ugm-3,28.94437,R,ugm-3,22.85077,R,ugm-3
08-01-2013,15:00,1.40321,R,ugm-3,25.66766,R,ugm-3,27.81960,R,ugm-3,21.70324,R,ugm-3
08-01-2013,16:00,0.87311,R,ugm-3,25.95788,R,ugm-3,27.29682,R,ugm-3,23.79872,R,ugm-3
08-01-2013,17:00,0.81075,R,ugm-3,21.91868,R,ugm-3,23.16209,R,ugm-3,25.69464,R,ugm-3
08-01-2013,18:00,0.81075,R,ugm-3,23.05949,R,ugm-3,24.30270,R,ugm-3,23.10023,R,ugm-3
08-01-2013,19:00,1.02902,R,ugm-3,24.43553,R,ugm-3,26.01363,R,ugm-3,18.26066,R,ugm-3
08-01-2013,20:00,1.15375,R,ugm-3,27.80871,R,ugm-3,29.57805,R,ugm-3,13.12173,R,ugm-3
08-01-2013,21:00,1.15375,R,ugm-3,32.22897,R,ugm-3,33.99793,R,ugm-3,9.03054,R,ugm-3
08-01-2013,22:00,3.33653,R,ugm-3,34.30021,R,ugm-3,39.41585,R,ugm-3,3.14323,R,ugm-3
08-01-2013,23:00,2.02686,R,ugm-3,29.60646,R,ugm-3,32.71474,R,ugm-3,7.73334,R,ugm-3
08-01-2013,24:00,0.59247,R,ugm-3,4.66937,R,ugm-3,5.57761,R,ugm-3,40.31314,R,ugm-3
09-01-2013,01:00,0.40537,R,ugm-3,2.42792,R,ugm-3,3.04924,R,ugm-3,51.08992,R,ugm-3
09-01-2013,02:00,0.49892,R,ugm-3,2.09419,R,ugm-3,2.85914,R,ugm-3,50.89035,R,ugm-3
09-01-2013,03:00,0.34301,R,ugm-3,1.76285,R,ugm-3,2.28883,R,ugm-3,51.23960,R,ugm-3
09-01-2013,04:00,0.46774,R,ugm-3,1.61893,R,ugm-3,2.33636,R,ugm-3,49.89250,R,ugm-3
09-01-2013,05:00,1.59031,R,ugm-3,8.73726,R,ugm-3,11.17613,R,ugm-3,43.20691,R,ugm-3
09-01-2013,06:00,0.99784,R,ugm-3,11.16661,R,ugm-3,12.69695,R,ugm-3,33.12862,R,ugm-3
09-01-2013,07:00,2.61933,R,ugm-3,22.13002,R,ugm-3,26.14670,R,ugm-3,22.20216,R,ugm-3
09-01-2013,08:00,3.14943,R,ugm-3,29.44389,R,ugm-3,34.27358,R,ugm-3,20.55571,R,ugm-3
09-01-2013,09:00,8.32573,R,ugm-3,41.13596,R,ugm-3,53.90166,R,ugm-3,9.23011,R,ugm-3
09-01-2013,10:00,4.27200,R,ugm-3,22.11567,R,ugm-3,28.66556,R,ugm-3,25.19571,R,ugm-3
09-01-2013,11:00,2.99352,R,ugm-3,13.71502,R,ugm-3,18.30497,R,ugm-3,35.22411,R,ugm-3
09-01-2013,12:00,2.68170,R,ugm-3,10.67605,R,ugm-3,14.78807,R,ugm-3,42.15916,R,ugm-3
09-01-2013,13:00,2.30751,R,ugm-3,10.67988,R,ugm-3,14.21777,R,ugm-3,42.90755,R,ugm-3
09-01-2013,14:00,1.87095,R,ugm-3,9.68586,R,ugm-3,12.55437,R,ugm-3,44.90325,R,ugm-3
09-01-2013,15:00,1.77740,R,ugm-3,10.30407,R,ugm-3,13.02963,R,ugm-3,44.65379,R,ugm-3
09-01-2013,16:00,2.18278,R,ugm-3,19.71070,R,ugm-3,23.05753,R,ugm-3,38.36733,R,ugm-3
09-01-2013,17:00,23.63634,R,ugm-3,46.22273,R,ugm-3,82.46456,R,ugm-3,10.52732,R,ugm-3
09-01-2013,18:00,26.22448,R,ugm-3,56.13188,R,ugm-3,96.34205,R,ugm-3,1.09764,R,ugm-3
09-01-2013,19:00,25.94384,R,ugm-3,50.57415,R,ugm-3,90.35382,R,ugm-3,0.69850,R,ugm-3
09-01-2013,20:00,5.67522,R,ugm-3,42.30068,R,ugm-3,51.00260,R,ugm-3,2.49463,R,ugm-3
09-01-2013,21:00,3.43008,R,ugm-3,34.38436,R,ugm-3,39.64398,R,ugm-3,5.63785,R,ugm-3
09-01-2013,22:00,33.20936,R,ugm-3,34.63298,R,ugm-3,85.55373,R,ugm-3,1.54667,R,ugm-3
09-01-2013,23:00,31.61906,R,ugm-3,32.22467,R,ugm-3,80.70612,R,ugm-3,0.04989,R,ugm-3
09-01-2013,24:00,2.74406,R,ugm-3,19.65811,R,ugm-3,23.86547,R,ugm-3,11.77463,R,ugm-3
10-01-2013,01:00,1.21612,R,ugm-3,16.38487,R,ugm-3,18.24984,R,ugm-3,12.24029,R,ugm-3
10-01-2013,02:00,0.87311,R,ugm-3,12.63398,R,ugm-3,13.97253,R,ugm-3,14.96775,R,ugm-3
10-01-2013,03:00,0.53010,R,ugm-3,13.11210,R,ugm-3,13.92501,R,ugm-3,12.12388,R,ugm-3
10-01-2013,04:00,1.15375,R,ugm-3,12.77407,R,ugm-3,14.54284,R,ugm-3,9.52947,R,ugm-3
10-01-2013,05:00,0.81075,R,ugm-3,8.16685,R,ugm-3,9.41007,R,ugm-3,16.71399,R,ugm-3
10-01-2013,06:00,1.65267,R,ugm-3,11.77096,R,ugm-3,14.30521,R,ugm-3,13.07184,R,ugm-3
10-01-2013,07:00,3.83545,R,ugm-3,15.74370,R,ugm-3,21.62416,R,ugm-3,9.52947,R,ugm-3
10-01-2013,08:00,6.45478,R,ugm-3,22.42024,R,ugm-3,32.31743,R,ugm-3,5.98710,R,ugm-3
10-01-2013,09:00,3.46126,R,ugm-3,18.55077,R,ugm-3,23.85786,R,ugm-3,9.03054,R,ugm-3
10-01-2013,10:00,2.55697,R,ugm-3,12.71334,R,ugm-3,16.63397,R,ugm-3,13.32130,R,ugm-3
10-01-2013,11:00,6.29887,R,ugm-3,21.99375,R,ugm-3,31.65207,R,ugm-3,7.83312,R,ugm-3
10-01-2013,12:00,7.26552,R,ugm-3,21.74752,R,ugm-3,32.88773,R,ugm-3,7.43398,R,ugm-3
10-01-2013,13:00,4.30319,R,ugm-3,18.40064,R,ugm-3,24.99848,R,ugm-3,13.12173,R,ugm-3
10-01-2013,14:00,,,,,,,,,,14.26926,R,ugm-3
10-01-2013,15:00,,,,,,,,,,3.54237,R,ugm-3
10-01-2013,16:00,12.09881,R,ugm-3,36.72096,R,ugm-3,55.27230,R,ugm-3,1.89592,R,ugm-3
10-01-2013,17:00,34.33193,R,ugm-3,39.79578,R,ugm-3,92.43734,R,ugm-3,0.49893,R,ugm-3
10-01-2013,18:00,43.65550,R,ugm-3,36.76303,R,ugm-3,103.70091,R,ugm-3,0.44903,R,ugm-3
10-01-2013,19:00,75.21219,R,ugm-3,43.41184,R,ugm-3,158.73559,R,ugm-3,0.39914,R,ugm-3
10-01-2013,20:00,67.13592,R,ugm-3,45.29230,R,ugm-3,148.23242,R,ugm-3,0.59871,R,ugm-3
10-01-2013,21:00,55.00593,R,ugm-3,42.98009,R,ugm-3,127.32115,R,ugm-3,0.54882,R,ugm-3
10-01-2013,22:00,7.70208,R,ugm-3,26.02052,R,ugm-3,37.83040,R,ugm-3,14.16947,R,ugm-3
10-01-2013,23:00,1.18494,R,ugm-3,15.67246,R,ugm-3,17.48943,R,ugm-3,37.66884,R,ugm-3
10-01-2013,24:00,1.02902,R,ugm-3,12.63254,R,ugm-3,14.21016,R,ugm-3,35.97249,R,ugm-3
11-01-2013,01:00,0.34301,R,ugm-3,2.13531,R,ugm-3,2.66144,R,ugm-3,51.08992,R,ugm-3
11-01-2013,02:00,0.49892,R,ugm-3,5.22304,R,ugm-3,5.98823,R,ugm-3,42.10927,R,ugm-3
11-01-2013,03:00,0.43656,R,ugm-3,6.17403,R,ugm-3,6.84369,R,ugm-3,33.57765,R,ugm-3
11-01-2013,04:00,0.43656,R,ugm-3,5.31866,R,ugm-3,5.98823,R,ugm-3,38.56690,R,ugm-3
11-01-2013,05:00,0.40537,R,ugm-3,7.45779,R,ugm-3,8.07936,R,ugm-3,37.71873,R,ugm-3
11-01-2013,06:00,2.15159,R,ugm-3,22.69755,R,ugm-3,25.99652,R,ugm-3,18.75958,R,ugm-3
11-01-2013,07:00,21.70302,R,ugm-3,37.58349,R,ugm-3,70.86071,R,ugm-3,1.24731,R,ugm-3
11-01-2013,08:00,66.16927,R,ugm-3,43.68533,R,ugm-3,145.14326,R,ugm-3,-0.44903,R,ugm-3
11-01-2013,09:00,120.95692,R,ugm-3,63.18948,R,ugm-3,248.65407,R,ugm-3,-0.09978,R,ugm-3
11-01-2013,10:00,103.93127,R,ugm-3,64.15433,R,ugm-3,223.51301,R,ugm-3,0.34925,R,ugm-3
11-01-2013,11:00,159.37376,R,ugm-3,72.57890,R,ugm-3,316.94839,R,ugm-3,-0.09978,R,ugm-3
11-01-2013,12:00,34.39430,R,ugm-3,47.63655,R,ugm-3,100.37412,R,ugm-3,5.93721,R,ugm-3
11-01-2013,13:00,9.38593,R,ugm-3,33.98943,R,ugm-3,48.38109,R,ugm-3,21.90281,R,ugm-3
11-01-2013,14:00,11.10097,R,ugm-3,43.74844,R,ugm-3,60.76943,R,ugm-3,32.28045,R,ugm-3
11-01-2013,15:00,2.49460,R,ugm-3,27.35210,R,ugm-3,31.17681,R,ugm-3,45.20261,R,ugm-3
11-01-2013,16:00,1.80859,R,ugm-3,40.47519,R,ugm-3,43.24832,R,ugm-3,34.07658,R,ugm-3
11-01-2013,17:00,4.08491,R,ugm-3,65.40511,R,ugm-3,71.66864,R,ugm-3,11.67485,R,ugm-3
11-01-2013,18:00,20.36217,R,ugm-3,72.95470,R,ugm-3,104.17617,R,ugm-3,0.84817,R,ugm-3
11-01-2013,19:00,24.38472,R,ugm-3,73.01256,R,ugm-3,110.40203,R,ugm-3,0.49893,R,ugm-3
11-01-2013,20:00,12.94074,R,ugm-3,64.94372,R,ugm-3,84.78572,R,ugm-3,0.79828,R,ugm-3
11-01-2013,21:00,0.87311,R,ugm-3,45.18855,R,ugm-3,46.52759,R,ugm-3,10.37764,R,ugm-3
11-01-2013,22:00,2.52578,R,ugm-3,47.69249,R,ugm-3,51.56530,R,ugm-3,9.47958,R,ugm-3
11-01-2013,23:00,0.62365,R,ugm-3,20.19218,R,ugm-3,21.14890,R,ugm-3,30.48432,R,ugm-3
11-01-2013,24:00,0.56129,R,ugm-3,18.33992,R,ugm-3,19.20035,R,ugm-3,39.46497,R,ugm-3
12-01-2013,01:00,0.49892,R,ugm-3,23.47307,R,ugm-3,24.23807,R,ugm-3,30.66726,R,ugm-3
12-01-2013,02:00,0.53010,R,ugm-3,12.01911,R,ugm-3,12.83192,R,ugm-3,37.98482,R,ugm-3
12-01-2013,03:00,0.56129,R,ugm-3,8.35906,R,ugm-3,9.21997,R,ugm-3,40.31314,R,ugm-3
12-01-2013,04:00,0.40537,R,ugm-3,8.17020,R,ugm-3,8.79224,R,ugm-3,42.60820,R,ugm-3
12-01-2013,05:00,0.43656,R,ugm-3,8.40831,R,ugm-3,9.07739,R,ugm-3,42.85766,R,ugm-3
12-01-2013,06:00,0.99784,R,ugm-3,10.35188,R,ugm-3,11.88141,R,ugm-3,39.86411,R,ugm-3
12-01-2013,07:00,1.02902,R,ugm-3,10.58903,R,ugm-3,12.16656,R,ugm-3,40.21336,R,ugm-3
12-01-2013,08:00,0.99784,R,ugm-3,11.87280,R,ugm-3,13.40223,R,ugm-3,39.41508,R,ugm-3
12-01-2013,09:00,0.65483,R,ugm-3,12.35045,R,ugm-3,13.35470,R,ugm-3,36.12217,R,ugm-3
12-01-2013,10:00,0.93548,R,ugm-3,8.87926,R,ugm-3,10.31306,R,ugm-3,42.90755,R,ugm-3
12-01-2013,11:00,1.24730,R,ugm-3,8.40018,R,ugm-3,10.31306,R,ugm-3,50.39143,R,ugm-3
12-01-2013,12:00,1.65267,R,ugm-3,9.01457,R,ugm-3,11.54873,R,ugm-3,53.53465,R,ugm-3
12-01-2013,13:00,0.90429,R,ugm-3,10.87495,R,ugm-3,12.26161,R,ugm-3,57.47616,R,ugm-3
12-01-2013,14:00,1.40321,R,ugm-3,20.23329,R,ugm-3,22.38457,R,ugm-3,50.44132,R,ugm-3
12-01-2013,15:00,1.71504,R,ugm-3,24.50773,R,ugm-3,27.13713,R,ugm-3,46.64949,R,ugm-3
12-01-2013,16:00,1.83977,R,ugm-3,25.55196,R,ugm-3,28.37280,R,ugm-3,41.26110,R,ugm-3
12-01-2013,17:00,1.52794,R,ugm-3,20.32653,R,ugm-3,22.66972,R,ugm-3,47.34798,R,ugm-3
12-01-2013,18:00,1.43440,R,ugm-3,19.13982,R,ugm-3,21.33901,R,ugm-3,48.29594,R,ugm-3
12-01-2013,19:00,1.49676,R,ugm-3,15.28948,R,ugm-3,17.58448,R,ugm-3,51.98799,R,ugm-3
12-01-2013,20:00,1.52794,R,ugm-3,13.48313,R,ugm-3,15.82603,R,ugm-3,51.78842,R,ugm-3
12-01-2013,21:00,1.83977,R,ugm-3,15.04851,R,ugm-3,17.86964,R,ugm-3,46.20046,R,ugm-3
12-01-2013,22:00,1.18494,R,ugm-3,15.05472,R,ugm-3,16.87160,R,ugm-3,40.16346,R,ugm-3